COSMOS 2251 DEB, 34325

Orbit data source: Space-Track

COSMOS 2251 DEB, 34325 is space debris in LEO originally from a launch on Wed, 16 Jun 1993 UTC launched from the Plesetsk Missile And Space Complex (PKMTR). The debris from Iridium 33, an American commercial communications satellite, has been tracked extensively since its accidental collision with the defunct Russian satellite Cosmos 2251 in 2009. This event, occurring at high speed in low Earth orbit (LEO), generated thousands of pieces of space debris, significantly increasing the risk of further collisions. The Iridium 33 debris cloud has impacted space traffic management and orbital debris mitigation strategies, making it a subject of ongoing study in space situational awareness.

Loading next visibility...
Identifier
34325, 1993-036NX
Orbit
LEO
Country
Flag of CISCIS
Related business
Manufacturer
Unknown
Mission
Spacecraft
Bus & Motor
Unknown
Mass
Unknown
Launch date (UTC)
1993-06-16 (32 years ago)
Launch vehicle
Unknown
Launch site
Plesetsk Missile And Space Complex (PKMTR)
Object type
Payload
Rocket body
Debris
Shape & HBR
Unknown shape, 0.1 m
Radar Cross Section
Small (<0.1 m²)

Expand to show TLE details & history
Last TLE update: 1 day ago

TLE from 1 day ago
0 COSMOS 2251 DEB
1 34325U 93036NX  25307.64603174  .00002704  00000-0  14488-2 0  9996
2 34325  73.8703 261.6728 0197257 286.0922 260.4772 14.04136511849666
Epoch: 2025-11-03T15:30Z
TLE epoch observation values (Epoch: 2025-11-03T15:30:17.142Z)
Latitude
-4.31258°
Longitude
167.20005°
Altitude
909.154 km
Speed
7.384 km/s
True Right ascension
05h 31m 39s
True Declination
-4° 17' 15"
Sunlit
Object was in full shadow at epoch
Visualization orbit readout
Latitude
Unknown
Longitude
Unknown
Altitude
Unknown
Speed
Unknown
Apparent Right ascension
Unknown
Apparent Declination
Unknown
Sunlit
N/A
Visualization observer readout
Local Sidereal Time
15:32:48
Azimuth
Unknown
Elevation
Unknown
Doppler factor
Unknown
Orbital elements
Apogee altitude
1,020.295 km
Perigee altitude
734.062 km
Semi-major axis
7,255.315 km
Eccentricity
0.01973
Inclination
73.8703°
RAAN
261.6728°
Arg. of periapsis
286.0922°
True anomaly
258.25756°
Mean anomaly
260.4772°
Eccentric anomaly
259.36641°
Mean motion
3.51203 °/min
Orbital period
102.5 mins
BSTAR
0.0014488

Documentation

Showing up to 5 results
|